N5JLD-1 Weather Reports


time (UTC)temp
C
wind
direction
speed
KPH
gust
KPH
rain 1hr
cm
rain 24hr
cm
rain mn
cm
humidity
%
barometer
mb
20190617103530 17 0.0 0.0 0.00 0.56 0.00 96 1012.2
20190617102532 17 0.0 0.0 0.00 0.61 0.00 96 1012.4
20190617101517 17 0.0 0.0 0.00 0.61 0.00 96 1012.2
20190617100519 17 0.0 0.0 0.00 0.61 0.00 96 1012.0
20190617095522 17 0.0 0.0 0.00 0.69 0.00 96 1012.0
20190617094524 17 0.0 0.0 0.00 0.71 0.00 96 1012.1
20190617093527 17 0.0 0.0 0.00 0.76 0.00 95 1012.1
20190617092523 17 0.0 0.0 0.00 0.76 0.00 95 1011.9
20190617091519 17 0.0 0.0 0.00 0.76 0.00 95 1011.8
20190617090516 17 0.0 0.0 0.00 0.76 0.00 95 1012.0
20190617085531 17 0.0 0.0 0.00 0.91 0.00 95 1012.3
20190617084516 17 0.0 0.0 0.00 1.07 0.00 95 1012.2
20190617083518 17 0.0 0.0 0.00 1.14 0.00 95 1012.2
20190617082521 17 0.0 0.0 0.00 1.17 0.00 95 1012.3
20190617081523 18 0.0 0.0 0.00 1.60 0.00 95 1012.4
20190617080526 18 0.0 0.0 0.00 1.83 0.00 95 1012.4
20190617075530 18 0.0 0.0 0.00 2.13 0.00 95 1012.4
20190617074532 18 0.0 0.0 0.00 2.44 0.00 95 1012.4
20190617073530 18 0.0 0.0 0.00 2.46 0.00 95 1012.6
20190617072533 18 270 0.0 1.6 0.00 2.59 0.00 95 1012.7
20190617071530 18 283 0.0 1.6 0.00 2.59 0.00 95 1012.7
20190617070533 18 0.0 0.0 0.00 2.59 0.00 95 1012.5
20190617065518 18 0.0 0.0 0.00 2.59 0.00 95 1012.6
20190617064519 18 0.0 1.6 0.00 2.59 0.00 95 1012.6
20190617063522 18 292 0.0 1.6 0.00 2.59 0.00 95 1012.7
20190617062524 18 127 0.0 3.2 0.00 2.59 0.00 95 1012.8
20190617061522 18 0.0 0.0 0.00 2.59 0.00 95 1013.1
20190617060518 18 0.0 0.0 0.00 2.59 0.00 94 1012.8
20190617055527 18 0.0 0.0 0.00 2.59 0.00 94 1012.7
20190617054529 18 187 0.0 3.2 0.00 2.59 0.00 94 1012.6
20190617053522 18 159 1.6 3.2 0.00 2.59 0.00 94 1012.5
20190617052520 18 251 1.6 3.2 0.00 2.59 0.00 94 1012.5
20190617051522 18 216 1.6 4.8 0.00 2.59 0.00 94 1012.6
20190617050525 18 284 4.8 8.0 0.00 2.59 0.00 94 1012.4
20190617045527 18 187 3.2 4.8 0.00 2.59 2.59 94 1012.2
20190617044529 18 176 3.2 6.4 0.00 2.59 2.59 94 1012.3
20190617043532 18 188 3.2 6.4 0.00 2.59 2.59 94 1012.6
20190617042517 18 147 3.2 6.4 0.00 2.59 2.59 94 1012.9
20190617041519 18 209 4.8 9.7 0.00 2.59 2.59 94 1013.1
20190617040521 18 166 4.8 9.7 0.00 2.59 2.59 94 1013.1
20190617035524 18 162 4.8 6.4 0.00 2.59 2.59 94 1013.1
20190617034527 18 187 4.8 6.4 0.00 2.59 2.59 94 1013.1
20190617033529 18 178 3.2 6.4 0.00 2.59 2.59 94 1013.1
20190617032527 18 164 3.2 6.4 0.00 2.59 2.59 94 1013.0
20190617031524 18 4 3.2 6.4 0.00 2.59 2.59 94 1012.9
20190617030520 18 189 3.2 4.8 0.00 2.59 2.59 94 1012.7
20190617025517 18 179 3.2 3.2 0.00 2.59 2.59 94 1012.5
20190617024527 18 200 4.8 8.0 0.00 2.59 2.59 94 1012.4
20190617023530 18 193 3.2 4.8 0.00 2.59 2.59 94 1012.2
20190617022532 18 240 1.6 6.4 0.00 2.59 2.59 94 1011.5
20190617021530 19 270 0.0 1.6 0.00 2.59 2.59 94 1011.5
20190617020533 19 101 4.8 8.0 0.00 2.59 2.59 94 1011.3
20190617015517 19 114 4.8 6.4 0.00 2.59 2.59 94 1011.6
20190617014519 19 86 3.2 6.4 0.00 2.59 2.59 94 1011.6
20190617013522 19 79 4.8 6.4 0.00 2.59 2.59 94 1011.5
20190617012524 19 47 3.2 6.4 0.00 2.59 2.59 94 1011.0
20190617011526 19 111 3.2 6.4 0.00 2.59 2.59 94 1010.8
20190617010529 19 0.0 0.0 0.00 2.59 2.59 94 1010.5
20190617005532 19 0.0 0.0 0.00 2.59 2.59 94 1010.5
20190617004516 19 0.0 0.0 0.00 2.59 2.59 94 1010.7
20190617003531 19 0.0 0.0 0.00 2.59 2.59 94 1010.7
20190617002516 18 0.0 0.0 0.00 2.59 2.59 94 1010.6
20190617001519 18 0.0 0.0 0.00 2.59 2.59 94 1010.1
20190617000520 18 0.0 0.0 0.00 2.59 2.59 94 1009.8
20190616235518 18 0.0 0.0 0.00 2.59 2.59 94 1010.3
20190616234520 18 0.0 0.0 0.00 2.59 2.59 94 1010.1
20190616233524 18 0.0 0.0 0.00 2.59 2.59 94 1010.0
20190616232527 18 0.0 0.0 0.00 2.59 2.59 94 1009.9
20190616231529 18 0.0 0.0 0.00 2.59 2.59 94 1009.5
20190616230531 18 0.0 0.0 0.00 2.59 2.59 93 1010.1
20190616225515 18 0.0 0.0 0.00 2.59 2.59 93 1010.6
20190616224518 18 290 0.0 3.2 0.00 2.59 2.59 92 1010.4
20190616223516 18 0.0 0.0 0.00 2.59 2.59 92 1009.8
20190616222518 18 223 3.2 6.4 0.00 2.59 2.59 91 1009.1
20190616221520 18 175 6.4 11.3 0.00 2.59 2.59 93 1009.1
20190616220524 18 52 4.8 6.4 0.03 2.59 2.59 93 1010.1
20190616215520 18 100 3.2 4.8 0.03 2.59 2.59 93 1011.5
20190616214524 18 0.0 1.6 0.05 2.57 2.57 93 1011.7
20190616213526 18 16 0.0 3.2 0.05 2.57 2.57 93 1012.0
20190616212528 18 358 0.0 4.8 0.10 2.57 2.57 93 1012.7
20190616211525 18 0.0 0.0 0.36 2.57 2.57 91 1012.0
20190616210516 18 270 0.0 1.6 0.53 2.54 2.54 91 1012.2
20190616205519 18 312 3.2 6.4 0.53 2.54 2.54 91 1012.0
20190616204515 18 354 1.6 4.8 0.48 2.51 2.51 89 1012.1
20190616203519 18 285 0.0 1.6 0.48 2.51 2.51 87 1012.1
20190616202521 19 285 1.6 6.4 0.46 2.46 2.46 85 1011.8
20190616201525 21 258 4.8 9.7 0.18 2.21 2.21 80 1012.4
20190616195529 26 13 3.2 6.4 0.00 2.01 2.01 81 1009.3
20190616194531 27 77 4.8 9.7 0.00 2.01 2.01 80 1009.3
20190616193516 27 53 6.4 11.3 0.00 2.01 2.01 78 1009.2
20190616192518 28 125 4.8 8.0 0.00 2.01 2.01 77 1009.8
20190616191521 28 51 6.4 9.7 0.00 2.01 2.01 76 1010.3
20190616190518 28 42 6.4 12.9 0.00 2.01 2.01 76 1010.5
20190616185520 28 38 4.8 6.4 0.00 2.01 2.01 75 1010.6
20190616184524 28 151 1.6 6.4 0.00 2.01 2.01 76 1010.5
20190616183521 28 125 1.6 6.4 0.00 2.01 2.01 76 1010.5
20190616182519 27 130 3.2 6.4 0.00 2.01 2.01 78 1010.8
20190616181521 27 172 4.8 9.7 0.00 2.01 2.01 77 1011.2
20190616180525 27 203 3.2 6.4 0.00 2.01 2.01 77 1011.5
20190616175521 27 235 3.2 6.4 0.00 2.01 2.01 78 1011.5
20190616174518 27 148 4.8 9.7 0.00 2.01 2.01 76 1011.8
20190616173516 27 198 6.4 11.3 0.00 2.01 2.01 76 1012.0
20190616172530 27 135 3.2 9.7 0.00 2.01 2.01 77 1012.3
20190616171533 27 178 4.8 9.7 0.00 2.01 2.01 77 1012.4
20190616170531 27 125 8.0 11.3 0.00 2.01 2.01 76 1012.2
20190616165516 27 165 6.4 12.9 0.00 2.01 2.01 77 1012.2
20190616164518 27 159 8.0 11.3 0.00 2.01 2.01 77 1012.2
20190616163521 26 129 8.0 12.9 0.00 2.01 2.01 78 1012.2
20190616162518 25 153 11.3 16.1 0.00 2.01 2.01 79 1012.2
20190616161516 25 96 8.0 11.3 0.00 2.01 2.01 80 1012.2
20190616160518 25 185 8.0 12.9 0.00 2.01 2.01 80 1012.3
20190616155520 25 162 8.0 14.5 0.00 2.01 2.01 80 1012.4
20190616154523 24 154 8.0 12.9 0.00 2.01 2.01 81 1012.6
20190616153526 23 221 11.3 16.1 0.00 2.01 2.01 83 1012.7
20190616152528 23 214 6.4 14.5 0.00 2.01 2.01 84 1012.8
20190616151530 22 101 8.0 11.3 0.00 2.01 2.01 86 1013.0
20190616150527 22 148 4.8 9.7 0.00 2.01 2.01 87 1013.3
20190616145525 21 112 8.0 12.9 0.00 2.01 2.01 89 1013.5
20190616144515 21 117 4.8 8.0 0.00 2.01 2.01 90 1013.5
20190616143518 21 131 4.8 8.0 0.00 2.01 2.01 91 1013.5
20190616142515 21 76 4.8 8.0 0.00 2.01 2.01 92 1013.6
20190616141524 21 138 4.8 9.7 0.00 2.01 2.01 92 1013.5
20190616140526 20 117 6.4 9.7 0.00 2.01 2.01 93 1013.3
20190616135529 20 144 4.8 8.0 0.00 2.01 2.01 95 1013.5
20190616134531 19 68 3.2 6.4 0.00 2.01 2.01 97 1013.5
20190616133528 19 70 4.8 6.4 0.00 2.01 2.01 97 1013.5
20190616132531 19 84 6.4 11.3 0.00 2.01 2.01 97 1013.1
20190616131515 18 134 3.2 9.7 0.00 2.01 2.01 97 1012.9
20190616130518 18 88 8.0 12.9 0.00 2.01 2.01 97 1013.1
20190616125520 18 170 6.4 12.9 0.00 2.01 2.01 97 1013.0
20190616124523 18 102 6.4 9.7 0.00 2.01 2.01 97 1012.9
20190616123525 18 55 8.0 11.3 0.00 2.01 2.01 97 1012.8
20190616122528 18 152 6.4 9.7 0.00 2.01 2.01 97 1012.7
20190616121530 18 74 4.8 12.9 0.00 2.01 2.01 97 1012.6
20190616120527 18 119 4.8 9.7 0.00 2.01 2.01 97 1012.7
20190616115518 18 112 6.4 11.3 0.00 2.01 2.01 97 1012.6
20190616114520 18 96 6.4 9.7 0.00 2.01 2.01 97 1012.4
20190616113517 18 100 6.4 9.7 0.00 2.01 2.01 97 1012.3
20190616112520 18 114 6.4 9.7 0.03 2.01 2.01 97 1012.0
20190616111518 18 99 8.0 11.3 0.03 2.01 2.01 97 1012.4
20190616110520 18 87 4.8 9.7 0.03 2.01 2.01 97 1012.5
20190616105528 18 104 4.8 8.0 0.10 2.01 2.01 96 1012.2
20190616104530 18 121 4.8 8.0 0.15 2.01 2.01 96 1012.2